Location: Ashland
(37.6947°N, 122.1139°W)
Time: 01:20:48
(UTC+00:00)

Daily predictions for brighter satellites

Satellite Brightness Start Highest point End
(mag) Time Altitude Azimuth Time Altitude Azimuth Time Altitude Azimuth
ATLAS 2AS CENTAUR R/B 3.7 03:40:51 10° SSE 03:47:19 29° ESE 03:53:42 10° NE
Cosmos 1666 Rocket 3.8 03:46:34 10° N 03:50:52 51° E 03:55:11 10° SSE
Cosmos 1805 Rocket 4.3 03:47:08 10° NNW 03:51:30 58° W 03:55:50 10° S
Cosmos 968 Rocket 3.7 03:46:33 10° SSW 03:51:43 78° WNW 03:56:51 10° NNE
Resurs 1-3 4.1 03:47:46 10° SE 03:51:55 44° ENE 03:56:05 10° N
NOSS 3-4 (A) 3.4 03:46:25 10° SSW 03:52:04 87° WNW 03:58:04 10° NNE
NOSS 3-4 (C) 3.4 03:46:27 10° SSW 03:52:07 88° WNW 03:58:09 10° NNE
SJ-6B 2.7 03:48:51 10° SSE 03:52:40 75° ENE 03:56:26 10° N
Meteor 1-5 Rocket 4.1 03:48:01 10° N 03:53:24 88° W 03:58:41 10° S
H-2A R/B 2.6 03:50:08 10° SSE 03:54:32 83° ENE 03:58:49 10° N
Cosmos 1315 Rocket 3.0 03:50:47 10° N 03:54:45 52° E 03:58:39 10° SSE
SJ 16-02 3.1 03:53:36 10° SE 03:55:55 14° E 03:58:13 10° ENE
Cosmos 1633 Rocket 3.3 03:54:31 10° N 03:58:47 50° E 04:02:59 10° SSE
ATLAS 5 CENTAUR R/B 3.9 03:44:32 10° WSW 03:59:44 25° SSW 04:05:24 10° SSE
Cosmos 1666 4.2 03:56:42 10° NNW 04:00:13 37° W 04:03:42 10° SSW
Cosmos 1743 4.3 03:59:56 10° NNE 04:02:40 19° ENE 04:05:10 11° ESE
Okean O Rocket 4.3 04:01:51 10° SW 04:04:35 16° W 04:07:18 10° NW
Sich 1 4.0 04:01:09 10° NNW 04:05:21 49° W 04:09:30 10° SSW
Meteor 1-10 Rocket 4.2 04:01:56 10° S 04:07:28 78° E 04:13:04 10° NNE
Cosmos 1470 Rocket 4.2 04:06:26 10° N 04:10:28 38° ENE 04:14:11 12° SE
Cosmos 44 4.3 04:10:13 10° NW 04:14:11 37° WSW 04:18:12 10° S
OAO 3 Rocket 3.3 04:09:59 10° W 04:14:50 62° S 04:19:18 12° ESE
Meteor 1-27 Rocket 3.9 04:10:55 10° S 04:16:31 57° E 04:22:15 10° NNE
Cosmos 2208 Rocket 4.2 04:13:43 10° NNW 04:19:10 83° WSW 04:24:31 10° SSE
NOSS 3-2 (C) 4.4 04:11:35 10° NW 04:19:28 77° WSW 04:28:16 10° SSE
Cosmos 1515 Rocket 3.7 04:16:12 10° S 04:20:26 53° E 04:24:43 10° NNE
Resurs 01 Rocket 2.1 04:16:57 13° SE 04:20:38 44° ENE 04:24:49 10° N
Cosmos 2278 4.5 04:16:14 10° SSE 04:21:03 30° ESE 04:25:54 10° NE
ISS -0.8 04:21:29 10° N 04:21:56 10° NNE 04:22:23 10° NNE
CENTAUR R/B 4.1 04:15:48 10° NW 04:23:59 50° WSW 04:32:36 10° S
Cosmos 2219 3.2 04:18:31 10° NNW 04:24:09 71° ENE 04:28:57 14° SSE
Ariane Rocket 3.6 04:21:00 14° SE 04:24:55 40° ENE 04:29:39 10° N
IGS 5A 3.8 04:21:37 10° S 04:25:44 66° W 04:29:52 10° NNW
PSLV R/B 3.8 04:22:53 10° NNE 04:26:56 84° ESE 04:30:57 10° SSW
Cosmos 921 Rocket 4.3 04:23:20 10° N 04:27:08 26° ENE 04:29:35 17° ESE
Cosmos 2082 4.4 04:25:21 10° N 04:30:38 40° ENE 04:34:24 18° ESE
Landsat 7 3.8 04:27:00 10° SSE 04:31:44 85° W 04:36:28 10° NNW
Okean-O 4.4 04:28:39 10° SSW 04:32:32 30° W 04:36:28 10° NW
Cosmos 2263 Rocket 3.7 04:28:26 10° N 04:32:37 21° NE 04:35:57 13° E
Cosmos 2034 Rocket 4.4 04:27:22 11° SSE 04:33:07 44° E 04:39:04 10° NNE
SL-12 R/B (Aux Motor) 3.6 04:30:10 10° WSW 04:33:34 83° NNW 04:35:26 10° ENE
Meteor 1-11 Rocket 3.8 04:29:19 10° N 04:35:20 81° E 04:40:52 12° SSE
Cosmos 2228 Rocket 4.3 04:36:12 20° ESE 04:37:59 26° E 04:41:44 10° NNE
USA 238 DEB 4.4 04:32:12 10° NW 04:39:27 57° WSW 04:46:37 12° SSE
USA 238 4.4 04:32:19 10° NW 04:39:34 58° WSW 04:46:42 12° SSE
Okean 1 4.0 04:37:49 22° SE 04:39:43 34° E 04:43:22 10° NNE
Cosmos 1536 2.8 04:37:49 10° N 04:41:51 73° E 04:44:32 20° SSE
Cosmos 1184 Rocket 2.4 04:39:40 15° S 04:42:06 84° E 04:45:07 10° N
RESURS DK-1 2.6 04:40:39 10° S 04:44:35 47° ESE 04:48:33 10° NE
ASTRO E2 4.0 04:41:57 10° WSW 04:45:09 24° SSW 04:46:10 22° SSE
IRAS Rocket 4.3 04:40:10 10° NNE 04:45:50 89° ESE 04:51:28 10° SSW
Aureole 1 Rocket 3.6 04:42:49 10° SW 04:46:02 41° WNW 04:48:54 10° N
SL-4 R/B 2.2 04:42:31 10° NW 04:47:05 73° NE 04:49:24 26° ESE
BREEZE-M DEB (TANK) 4.3 04:44:42 10° WNW 04:48:02 35° SW 04:51:25 18° SSE
Cosmos 2227 Rocket 2.6 04:46:01 10° NNW 04:51:36 60° WSW 04:56:09 15° S
NOSS 2-1 (C) 4.4 04:55:02 21° ENE 04:55:02 21° ENE 04:56:29 10° ENE
H-2A R/B 3.6 04:50:15 10° N 04:53:58 34° WNW 04:57:42 10° SW
Cosmos 1980 Rocket 2.3 04:50:06 10° SSW 04:55:43 80° WNW 05:01:25 10° NNE
ARGOS Delta rocket 4.4 04:51:30 10° N 04:56:58 70° WNW 05:02:16 10° SSW
Cosmos 1777 Rocket 4.1 04:53:11 15° S 04:57:15 53° ESE 05:02:20 10° NNE
Spot 2 Rocket 4.4 04:56:36 24° ESE 04:58:38 32° ENE 05:03:04 10° N
Cosmos 1354 Rocket 4.0 04:53:54 10° SSW 04:59:10 88° WNW 05:04:30 10° NNE
SPOT 3 Rocket 3.7 04:59:24 28° SE 05:02:00 57° ENE 05:07:02 10° N
CZ-4B R/B 3.1 04:59:10 10° N 05:02:02 31° WNW 05:04:49 10° SW
Cosmos 1809 Rocket 4.5 04:55:57 10° N 05:02:04 65° E 05:05:42 25° SSE
ARIANE 5 R/B 4.5 05:01:18 15° E 05:02:20 16° ENE 05:05:08 10° NNE
Cosmos 389 Rocket 2.5 04:59:01 10° NNW 05:02:32 74° W 05:04:00 32° S
Cosmos 773 Rocket 4.5 04:58:50 10° N 05:03:50 45° ENE 05:05:56 30° ESE
NOSS 2-1 (D) 4.0 05:05:15 27° ENE 05:05:15 27° ENE 05:07:06 10° NE
Cosmos 2322 Rocket 3.5 05:04:59 20° E 05:04:59 20° E 05:08:42 10° NE
Cosmos 2369 4.4 05:00:49 10° SW 05:06:19 56° WNW 05:11:53 10° NNE
Cosmos 1975 4.1 05:08:22 10° NNE 05:11:46 25° ENE 05:11:59 25° E
Meteor 2-4 Rocket 4.2 05:10:31 31° SE 05:12:39 43° E 05:17:58 10° NNE
GENESIS II 4.1 05:14:02 51° SSE 05:14:31 56° ESE 05:18:20 10° NE
Cosmos 2344 4.1 05:08:10 10° SW 05:15:43 59° NW 05:23:08 10° NNE
Meteor 1-19 Rocket 4.1 05:11:31 17° S 05:15:45 89° E 05:21:11 10° N
Helios 1A Rocket 3.0 05:19:41 48° ESE 05:20:24 57° ENE 05:24:20 10° N
MetOp-B 4.3 05:19:22 27° S 05:22:19 72° WSW 05:27:42 10° NNW
Cosmos 1933 Rocket 4.4 05:22:17 10° NNW 05:26:34 46° W 05:28:55 24° SSW
CZ-3 Stage 3 3.5 05:17:20 10° WSW 05:27:37 37° SSW 05:28:02 36° S
Cosmos 2297 Rocket 4.4 05:24:11 10° WNW 05:27:52 18° W 05:31:32 10° SW
Cosmos 1733 Rocket 4.2 05:29:17 10° NNE 05:33:09 28° ENE 05:33:09 28° ENE
Cosmos 1092 Rocket 4.0 05:27:03 10° N 05:33:12 66° E 05:35:23 40° SSE
USA 81 4.3 05:32:10 43° SE 05:33:13 50° E 05:38:18 10° NNE
Nadezhda 4 Rocket 4.2 05:27:23 10° NNW 05:33:34 69° W 05:37:03 27° S
ERS-1 Rocket 3.1 05:32:27 45° SE 05:33:42 59° ENE 05:38:39 10° N
Meteor 2-14 Rocket 4.4 05:27:52 10° N 05:33:59 81° W 05:36:57 32° S
SJ 16-02 2.5 05:29:52 10° SW 05:34:01 42° WNW 05:38:11 10° N
Cosmos 1634 Rocket 4.0 05:33:09 37° SSE 05:35:39 66° E 05:41:46 10° NNE
CZ-2C R/B 3.7 05:33:00 10° NNE 05:37:47 76° ESE 05:38:58 51° S
ATLAS 2AS CENTAUR R/B 3.5 05:30:10 10° SW 05:37:52 61° NW 05:45:25 10° NNE
Meteor 2-9 Rocket 4.3 05:33:28 10° NNW 05:39:11 75° W 05:41:28 37° S
Cosmos 1862 Rocket 4.2 05:43:04 40° ENE 05:43:04 40° ENE 05:46:53 10° NNE
SL-16 R/B 2.1 05:42:19 44° S 05:43:58 66° ESE 05:49:36 10° NNE
Cosmos 1346 Rocket 2.8 05:47:19 72° ENE 05:47:19 72° ENE 05:51:05 10° NNE
Resurs 01 Rocket 4.1 05:54:52 10° SW 05:57:19 15° W 05:59:46 10° WNW
Cosmos 2026 Rocket 3.9 05:51:45 10° N 05:57:57 89° E 05:59:49 49° S
OAO 3 Rocket 4.3 05:53:34 10° W 05:57:03 32° SW 05:57:03 32° SW
ISS -2.2 05:56:22 10° NW 05:58:52 32° N 05:58:52 32° N
Cosmos 1378 4.2 06:00:53 37° W 06:01:11 38° W 06:04:37 10° N
Terra 1.6 06:02:20 77° SSE 06:02:41 90° SSE 06:07:29 10° NNW
SPOT 5 3.3 06:01:47 48° SSW 06:03:03 62° W 06:08:11 10° NNW
NOSS 2-1 (E) 4.2 06:03:41 38° NW 06:03:41 38° NW 06:06:24 10° NNE
ATLAS 3B R/B 3.3 05:59:35 10° NNW 06:06:51 54° NE 06:09:35 37° ESE
Meteor 2-8 Rocket 4.5 06:05:07 41° SSW 06:07:22 76° W 06:13:28 10° N
Cosmos 2360 Rocket 2.6 06:09:14 44° E 06:09:14 44° E 06:13:56 10° NE
Meteor 1-13 Rocket 4.3 06:16:36 57° E 06:16:36 57° E 06:21:58 10° NNE
Cosmos 2263 Rocket 2.5 06:11:26 10° NNW 06:16:50 52° WSW 06:17:39 48° SW
Cosmos 990 Rocket 3.8 06:17:50 80° ESE 06:17:52 80° ESE 06:23:08 10° NNE
Cosmos 1898 Rocket 3.6 06:32:56 65° ENE 06:32:56 65° ENE 06:37:40 10° NNE
Iridium 4 Rocket 4.4 06:29:07 10° NNE 06:32:34 35° ENE 06:32:34 35° ENE
Cosmos 2266 Rocket 4.3 06:27:54 10° N 06:33:54 49° E 06:34:11 49° E
H-2A ROCKET BODY 4.2 05:49:26 10° W 06:34:57 49° SSW 06:38:16 42° S
Cosmos 1066 Rocket 4.1 06:34:33 75° SSW 06:35:02 83° W 06:40:46 10° N
ATLAS CENTAUR R/B 3.6 06:33:37 10° N 06:37:12 20° NE 06:37:47 20° NE
Cosmos 2279 Rocket 4.2 06:36:12 48° SW 06:37:43 62° W 06:43:53 10° N
ARIANE 5 R/B 3.6 06:38:51 42° W 06:38:51 42° W 06:42:41 10° NNW
SL-24 R/B - RUBIN 2 4.4 06:36:23 10° NW 06:39:49 47° WNW 06:39:49 47° WNW
Meteor 1-12 Rocket 4.4 06:37:18 10° N 06:43:10 63° ENE 06:43:10 63° ENE
Cosmos 2322 Rocket 2.9 06:46:43 38° WSW 06:48:19 49° WNW 06:53:46 10° NNE
Cosmos 2333 Rocket 2.6 06:55:08 52° ENE 06:55:08 52° ENE 06:59:39 10° NNE
Cosmos 1844 Rocket 2.8 06:50:54 10° NNW 06:56:11 64° NE 06:56:11 64° NE
USA 215 3.1 06:51:58 10° NE 06:58:34 90° W 07:00:09 56° SW
ADEOS Rocket 4.2 07:00:12 25° ENE 07:00:46 26° ENE 07:05:29 10° N
Meteor 1-23 Rocket 4.2 07:05:14 80° NNE 07:05:14 80° NNE 07:10:45 10° N
Cosmos 2219 Rocket 2.7 07:13:10 50° NE 07:13:10 50° NE 07:17:27 10° NNE
Cosmos 1726 4.4 07:09:20 10° N 07:10:51 23° N 07:10:51 23° N
Cosmos 1844 3.8 07:15:32 10° NNW 07:20:49 74° NNW 07:20:49 74° NNW
ALOS 2 4.0 07:28:57 36° NNE 07:28:57 36° NNE 07:31:43 10° N
Cosmos 2237 Rocket 3.8 07:43:57 24° ENE 07:43:57 24° ENE 07:46:59 10° NE
COSMOS 2428 3.0 07:47:43 63° NNE 07:47:43 63° NNE 07:52:28 10° NNE
Cosmos 2360 Rocket 4.0 07:50:56 20° W 07:52:46 24° WNW 07:57:17 10° N
Cosmos 1867 4.0 07:56:49 58° N 07:56:49 58° N 08:01:28 10° NNE
In-Cosmos 22 4.5 07:57:23 63° N 07:57:23 63° N 08:01:58 10° N
CZ-4C R/B 3.4 07:49:47 10° NNW 07:57:12 59° NE 07:59:52 43° ESE
ATLAS 3B R/B 3.9 07:50:51 10° NW 07:56:50 32° WSW 07:56:50 32° WSW
NOSS 3-1 (C) 4.1 08:01:35 10° NNW 08:09:26 88° WSW 08:10:48 68° SSE
ATLAS CENTAUR R/B 3.5 08:11:41 10° NW 08:13:46 24° NW 08:13:46 24° NW
Nimbus 7 Rocket 4.4 08:10:45 10° NNE 08:16:04 74° N 08:16:04 74° N
Cosmos 2278 Rocket 3.1 08:12:12 10° N 08:17:32 40° ENE 08:17:53 39° ENE
Cosmos 371 Rocket 4.4 08:20:00 40° NE 08:20:00 40° NE 08:23:10 10° NNE
Lacrosse 5 3.8 08:22:52 21° ENE 08:22:52 21° ENE 08:24:49 10° ENE
SL-08 R/B 4.5 08:18:11 10° N 08:24:08 79° NW 08:24:08 79° NW
SL-16 R/B 3.9 08:31:39 21° E 08:31:39 21° E 08:35:05 10° NE
Cosmos 1980 3.9 08:35:13 65° NNE 08:35:13 65° NNE 08:40:01 10° NNE
ASTEX 1 4.3 08:31:55 10° N 08:35:31 44° NNW 08:35:31 44° NNW
Cosmos 2333 Rocket 4.2 08:37:06 17° WNW 08:38:47 19° NW 08:42:42 10° N
ADEOS Rocket 3.8 08:47:08 35° WNW 08:47:08 35° WNW 08:51:27 10° NNW
Cosmos 2219 Rocket 4.2 08:54:52 16° WNW 08:56:21 17° NW 09:00:01 10° NNW
Cosmos 1975 Rocket 4.3 09:02:20 39° NE 09:02:20 39° NE 09:05:26 10° NNE
COSMOS 2455 4.2 09:01:17 26° ESE 09:01:17 26° ESE 09:06:04 10° NE
Cosmos 1709 Rocket 3.8 08:56:28 10° N 09:02:37 79° E 09:02:43 79° E
Cosmos 2315 Rocket 3.9 09:02:46 85° SSE 09:02:56 87° E 09:09:21 10° N
Cosmos 1025 Rocket 4.4 09:04:29 34° NE 09:04:29 34° NE 09:07:22 10° NNE
EO 1 Delta rocket 4.3 08:59:27 10° NNE 09:03:38 66° NE 09:03:38 66° NE
Cosmos 1125 Rocket 4.4 09:04:48 39° NW 09:04:48 39° NW 09:09:10 10° N
CZ-2D R/B 3.2 09:02:42 10° NNE 09:07:28 33° E 09:07:28 33° E
S3M 4.4 09:07:34 49° W 09:07:40 49° W 09:13:49 10° N
Lacrosse 5 rocket 3.4 09:12:11 22° ENE 09:12:11 22° ENE 09:13:46 10° NE
USA 267 3.1 09:13:29 74° SSW 09:13:49 76° SW 09:20:23 10° NW
Cosmos 332 Rocket 4.5 09:21:38 48° NNW 09:21:38 48° NNW 09:25:30 10° N
Meteor 2-5 Rocket 3.7 09:22:35 74° ESE 09:22:43 75° E 09:28:24 10° NNE
NOSS 2-2 (C) 4.5 09:17:11 10° NW 09:22:51 72° WSW 09:23:01 72° SW
Cosmos 2237 Rocket 3.0 09:25:45 38° WNW 09:26:05 38° WNW 09:31:23 10° N
USA 229 DEB 3.9 09:19:10 10° NW 09:26:37 64° WSW 09:27:29 61° SSW
USA 229 3.9 09:19:16 10° NW 09:26:43 65° WSW 09:27:37 61° SSW
GP-B 4.0 09:23:24 10° N 09:26:36 45° NNW 09:26:36 45° NNW
CZ-4 R/B 4.4 09:25:03 10° NNE 09:29:07 50° ENE 09:29:07 50° ENE
Resurs 1-4 Rocket 2.3 09:27:03 10° NNE 09:32:17 60° ESE 09:32:24 60° ESE
Cosmos 1544 Rocket 4.4 09:30:55 10° N 09:34:59 44° ENE 09:34:59 44° ENE
IDEFIX/ARIANE 42P 3.8 09:39:11 10° NE 09:43:52 32° E 09:45:05 28° ESE
Cosmos 1943 Rocket 2.7 09:38:33 10° NNW 09:44:09 56° ENE 09:46:34 32° SE
ADEOS II 2.9 09:40:28 10° NNE 09:45:23 40° E 09:46:18 37° ESE
CZ-4C R/B 3.8 09:38:49 10° NW 09:45:00 33° WSW 09:45:00 33° WSW
Thor Agena Rocket 4.0 09:42:01 10° N 09:47:07 50° WNW 09:47:12 50° WNW
Cosmos 839 Rocket 4.5 09:42:59 10° NW 09:49:27 54° WSW 09:50:12 52° SW
MOS 1 Rocket 4.3 09:49:39 32° ESE 09:50:37 36° ENE 09:54:34 10° N
Cosmos 2297 4.5 09:46:25 10° NNW 09:52:01 50° ENE 09:55:49 20° SE
Cosmos 2278 Rocket 3.7 09:56:45 10° NW 09:59:42 22° WNW 09:59:42 22° WNW
Cosmos 1455 2.9 09:59:24 10° N 10:02:19 51° NNE 10:02:19 51° NNE
Lacrosse 5 2.8 10:02:03 34° WNW 10:03:08 38° NW 10:07:54 10° NNE
NPP 3.5 10:02:50 10° N 10:08:14 78° WNW 10:09:05 63° SW
Cosmos 1271 Rocket 3.6 10:08:52 10° N 10:12:34 44° ENE 10:13:07 41° ESE
Cosmos 2369 Rocket 3.6 10:09:22 10° N 10:14:33 37° ENE 10:19:41 10° SE
SL-16 R/B 2.7 10:13:31 41° W 10:14:34 46° WNW 10:20:01 10° N
Cosmos 2154 Rocket 4.0 10:11:54 10° N 10:18:16 79° E 10:21:27 32° SSE
AQUA 3.7 10:13:59 10° N 10:18:45 78° WNW 10:19:20 66° SW
Cosmos 2228 4.1 10:16:34 10° N 10:20:42 42° E 10:22:40 26° SE
Cosmos 1269 Rocket 4.3 10:17:33 10° NNW 10:22:29 46° W 10:22:29 46° W
SAR-Lupe-2 4.0 10:20:54 10° N 10:23:54 52° NNW 10:23:54 52° NNW
Cosmos 1536 Rocket 3.7 10:30:58 53° W 10:31:09 53° W 10:35:27 10° N
SL-16 R/B 2.5 10:31:19 39° SSW 10:33:33 61° WSW 10:39:43 10° NNW
GPS 2-04 Rocket1 3.9 10:39:11 25° ESE 10:39:11 25° ESE 10:41:11 10° E
Cosmos 1603 4.0 10:35:48 33° S 10:38:11 62° ESE 10:43:46 10° NNE
Cosmos 292 Rocket 4.1 10:37:52 44° WSW 10:38:45 50° WNW 10:43:25 10° N
Cosmos 2074 Rocket 4.3 10:34:34 10° NNW 10:40:33 47° W 10:42:27 36° SW
Cosmos 1328 4.4 10:41:59 34° SSE 10:43:22 52° E 10:47:14 10° NNE
Cosmos 1295 Rocket 4.5 10:39:14 10° NNW 10:45:31 68° W 10:48:54 29° SSW
COSMOS 2455 3.4 10:44:25 31° WSW 10:46:47 46° WNW 10:52:34 10° NNE
CZ-2D R/B 3.3 10:42:54 10° N 10:47:23 28° WNW 10:48:47 25° W
Cosmos 2327 Rocket 4.5 10:41:33 10° N 10:47:56 74° W 10:51:55 25° S
Lacrosse 5 rocket 3.3 10:47:42 15° WNW 10:49:16 18° NNW 10:52:08 10° NNE
Helios 1B rocket 3.7 10:47:15 10° NNE 10:51:00 35° E 10:53:29 18° SSE
DNEPR-1 R/B 3.4 10:50:23 48° SSW 10:51:32 88° ESE 10:56:00 10° NNE
Cosmos 1703 3.8 10:56:12 38° W 10:56:34 39° W 11:00:17 10° N
Cosmos 1606 Rocket 3.6 10:53:50 10° N 10:58:15 75° E 11:01:20 19° SSE
EO 1 Del DPAF 3.9 10:57:19 10° N 11:00:30 33° WNW 11:00:43 33° W
OAO 2 Rocket 3.5 11:00:43 35° SW 11:02:21 50° SSE 11:07:07 10° E
MSX 3.9 10:57:38 10° N 11:03:19 63° WNW 11:06:27 27° SW
Helios 1A 3.3 11:04:40 37° SW 11:05:44 45° W 11:09:48 10° NNW
Cosmos 1943 3.3 11:05:15 29° SW 11:08:10 66° WNW 11:13:50 10° NNE
Lacrosse 4 Rocket 3.0 11:07:59 13° SSE 11:11:06 29° ESE 11:14:47 10° NE
Resurs 1-4 Rocket 3.9 11:08:23 10° NNW 11:11:33 16° WNW 11:13:28 14° W
Cosmos 1624 Rocket 4.3 11:07:53 20° S 11:11:34 68° ESE 11:16:50 10° NNE
Cosmos 1408 3.4 11:09:12 17° SSE 11:11:45 47° E 11:15:14 10° NNE
Cosmos 962 Rocket 4.4 11:07:32 10° NNW 11:13:38 69° W 11:19:07 13° S
Cosmos 2181 Rocket 4.0 11:10:08 16° S 11:15:18 89° E 11:21:30 10° N
Meteor 1-28 Rocket 4.3 11:15:46 26° W 11:15:46 26° W 11:18:53 10° NW
Cosmos 1892 3.6 11:12:44 14° SSE 11:15:48 46° E 11:19:25 10° NNE
ARIANE 5 R/B 3.9 11:12:03 10° NNE 11:16:40 35° E 11:21:12 10° SSE
Meteor 2-1 Rocket 4.2 11:13:05 10° NNW 11:18:48 74° W 11:24:22 10° S
CBERS-1 4.0 11:15:06 10° NNE 11:20:14 84° WNW 11:24:04 18° SSW
IDEFIX/ARIANE 42P 3.7 11:18:49 10° N 11:23:18 29° WNW 11:25:53 20° WSW
Cosmos 2056 Rocket 3.5 11:19:47 19° SSW 11:23:30 87° ESE 11:28:46 10° NNE
ADEOS II 3.5 11:20:42 10° NNW 11:24:47 23° WNW 11:27:14 17° WSW
Cosmos 1943 Rocket 3.6 11:23:38 10° WNW 11:27:21 18° W 11:28:00 18° WSW
ALOS 2.7 11:24:26 10° NNE 11:29:03 60° E 11:33:38 10° S
FENGYUN 3A 3.8 11:24:08 10° NNE 11:29:32 75° ESE 11:34:55 10° S
Cosmos 1892 Rocket 3.8 11:28:11 21° SSW 11:30:56 53° W 11:35:20 10° N
IRS-1D 4.2 11:28:57 10° N 11:33:52 40° WNW 11:37:18 18° SW
Cosmos 2263 4.2 11:31:08 10° NNW 11:36:45 62° WSW 11:42:23 10° S
Cosmos 2251 Rocket 4.1 11:32:15 10° NW 11:37:04 37° W 11:41:54 10° SSW
Cosmos 1726 Rocket 3.8 11:32:58 10° NNW 11:37:13 49° W 11:41:06 12° SSW
Cosmos 1190 Rocket 4.1 11:35:12 10° NNW 11:40:31 82° ENE 11:45:50 10° SSE
Meteor 1-29 3.5 11:42:05 10° NNE 11:45:16 52° E 11:48:26 10° S
Lacrosse 5 4.4 11:45:42 10° NW 11:47:27 12° NNW 11:49:11 10° N
CZ-2C R/B 2.5 11:43:51 10° NNE 11:48:57 87° WNW 11:53:53 10° SSW
PAYLOAD A 3.8 11:47:45 10° N 11:52:31 81° WNW 11:57:24 10° SSW
